Temp
95 96 95 95 95 94 92 90 89 89 89 90 91 92 93 96 97 99 97 94 96 97 95 97 96 95 95 90 90 90 89 91 91 91 94 84 89 90 91 91 89 86 85
94 94 94 94 93 93 91 90 89 88 88 91 91 93 94 97 97 98 95 95 95 96 95 93 94 93 94 91 89 88 89 91 91 86 90 87 86 88 89 89 88 83 86
93 93 92 93 94 93 91 90 89 89 89 90 91 90 91 92 93 95 97 98 95 96 95 93 93 91 92 95 90 89 87 87 90 87 86 83 83 87 86 85 87 85 87
95 94 93 92 94 95 95 92 90 89 90 89 89 87 89 90 95 95 97 96 96 96 96 94 93 91 94 90 91 91 88 84 87 91 89 85 83 81 82 84 82 84 82
96 95 95 94 96 97 96 94 91 89 89 88 87 89 86 93 95 96 91 91 94 96 96 95 93 92 96 91 89 87 86 89 87 88 88 86 88 86 81 80 84 83 86
97 97 97 97 96 98 97 96 91 87 88 88 87 85 87 88 92 92 93 96 99 99 94 95 93 92 91 91 90 86 86 85 85 87 86 86 84 83 82 81 82 80 84
97 96 95 95 95 96 96 96 91 86 88 87 87 86 86 86 87 89 93 93 97 98 93 92 92 95 91 90 87 86 85 85 85 82 87 87 85 85 84 82 82 79 84
99 97 98 96 96 96 95 94 92 88 88 88 87 87 87 90 92 91 94 95 96 97 93 93 94 93 92 91 89 88 88 84 84 80 79 86 85 85 83 81 79 78 82
99 98 99 99 97 97 96 95 93 90 89 89 88 86 87 87 92 91 91 94 93 96 93 94 93 93 92 90 87 86 79 84 83 80 80 84 85 85 84 84 82 77 75
99 100 100 98 100 100 99 97 96 92 91 91 90 89 88 88 89 90 89 92 93 91 92 92 92 92 91 91 88 85 80 79 85 85 79 79 82 84 83 82 82 81 77
101 102 103 101 102 103 102 99 97 95 92 92 92 90 89 89 88 89 90 90 91 90 90 90 91 91 90 89 86 84 79 75 79 80 79 76 77 81 82 82 81 79 77
99 103 104 103 101 101 100 99 97 95 93 92 91 90 89 89 88 88 89 90 89 90 90 90 89 90 91 89 84 82 80 75 79 78 77 77 80 76 76 81 74 73 75
93 99 102 100 99 99 98 97 96 96 95 92 90 89 88 87 86 86 87 88 89 90 91 90 88 89 89 89 84 83 78 74 80 79 78 76 75 74 76 75 77 77 75
86 91 94 94 95 95 95 95 96 98 95 93 90 88 88 88 88 87 88 88 88 88 89 90 89 89 90 89 84 82 78 73 79 79 78 77 76 74 74 75 74 74 76
78 83 84 87 89 91 91 91 92 94 95 90 90 89 90 90 90 89 89 90 89 89 89 90 90 90 91 91 83 82 78 74 77 77 78 78 71 65 67 79 73 73 75
71 76 79 79 80 82 87 89 90 91 92 90 88 89 89 90 89 89 89 89 89 88 89 89 90 90 94 69 71 78 80 75 72 75 76 73 69 67 63 64 62 64 69
69 69 72 75 77 83 83 85 89 91 88 87 87 88 88 87 88 89 89 88 88 88 87 88 89 90 91 66 67 70 82 77 68 76 75 78 78 73 73 63 63 62 62
70 69 70 72 75 83 81 80 87 87 89 88 88 88 87 87 87 87 87 87 88 88 87 88 88 89 90 63 63 67 79 76 69 76 78 79 73 74 74 75 73 73 71
69 68 71 73 74 79 73 75 82 87 87 87 88 89 88 87 87 86 86 87 88 87 88 89 88 88 80 60 61 69 78 75 71 75 78 77 75 63 63 74 73 72 71
71 71 73 73 74 73 73 73 77 86 86 89 89 89 88 87 87 87 86 87 88 88 92 89 89 82 85 58 59 70 84 75 73 71 76 67 73 59 59 73 73 72 73
70 72 73 72 70 72 72 71 72 75 79 83 86 87 86 86 88 88 88 87 87 90 87 88 89 89 84 68 57 60 83 79 72 66 75 78 58 55 55 55 75 70 72
69 74 74 73 72 72 74 77 75 70 71 81 84 85 83 84 91 87 87 87 86 84 86 85 86 86 84 65 56 57 64 68 73 72 77 77 55 53 53 59 56 57 61
70 73 75 73 73 72 70 73 70 71 74 77 81 80 81 75 77 84 84 84 85 88 88 89 88 81 82 79 58 55 57 60 69 77 71 59 53 52 54 55 55 52 76
70 72 73 73 70 70 68 64 66 69 70 75 77 80 80 79 81 82 78 73 79 79 88 92 85 88 85 85 76 67 64 59 68 62 69 67 67 64 69 66 65 77 81
70 70 71 73 71 70 69 67 64 68 72 73 74 75 71 72 72 74 74 71 68 60 65 75 90 89 85 86 73 68 70 67 67 70 68 72 75 75 77 77 78 79 78
69 69 70 71 71 72 71 70 70 69 70 75 79 78 73 76 74 71 67 55 56 53 51 51 61 91 69 55 55 53 52 53 54 67 62 65 75 78 78 78 78 79 75
MSLP
1009.11 1010.01 1010.74 1011.37 1011.93 1012.55 1013.26 1013.94 1014.53 1014.97 1015.23 1015.23 1015.17 1015.05 1014.72 1014.65 1014.58 1014.55 1014.85 1015.01 1014.78 1014.63 1014.74 1014.15 1014.14 1014.05 1013.86 1014.33 1014.13 1013.87 1013.38 1013.09 1013.05 1012.32 1011.73 1012.88 1013.31 1013.07 1013.04 1013.06 1013.36 1014.07 1014.27
1008.40 1009.26 1010.23 1010.97 1011.53 1012.12 1012.86 1013.62 1014.14 1014.72 1015.25 1015.07 1015.08 1014.97 1014.85 1014.62 1014.53 1014.52 1014.81 1014.84 1014.76 1014.59 1014.50 1014.57 1014.29 1014.16 1014.06 1013.97 1014.20 1014.13 1013.59 1013.14 1013.16 1013.09 1011.90 1011.59 1012.31 1012.97 1013.33 1013.54 1013.81 1014.44 1014.49
1007.73 1008.59 1009.53 1010.40 1010.98 1011.55 1012.31 1013.03 1013.79 1014.31 1014.91 1015.00 1015.23 1015.42 1015.44 1015.25 1014.84 1014.54 1014.37 1014.23 1014.66 1014.50 1014.48 1014.43 1014.38 1014.31 1014.14 1013.55 1014.09 1014.05 1013.93 1013.36 1013.00 1013.49 1013.02 1012.13 1011.72 1012.16 1013.47 1013.84 1014.19 1014.37 1014.15
1007.25 1007.90 1008.88 1009.71 1010.28 1010.84 1011.65 1012.58 1013.33 1013.93 1014.53 1015.02 1014.95 1015.12 1014.79 1014.43 1014.17 1014.37 1014.37 1014.60 1014.51 1014.39 1014.37 1014.42 1014.32 1014.30 1013.95 1014.08 1014.07 1014.05 1014.22 1014.22 1013.19 1012.88 1013.27 1013.82 1013.76 1012.93 1012.44 1013.36 1014.15 1014.46 1014.42
1006.28 1007.00 1007.90 1008.76 1009.50 1010.25 1010.87 1011.74 1012.81 1013.53 1014.00 1014.50 1014.87 1014.93 1015.01 1014.37 1014.39 1014.36 1014.75 1014.80 1014.64 1014.39 1014.29 1014.39 1014.34 1014.30 1013.85 1014.28 1014.37 1014.42 1014.50 1013.90 1013.85 1013.52 1013.40 1013.57 1013.56 1013.70 1013.41 1012.65 1012.66 1013.59 1013.98
1005.31 1006.22 1007.13 1008.06 1008.77 1009.58 1010.33 1011.00 1012.00 1012.99 1013.66 1014.16 1014.59 1014.84 1014.68 1014.64 1014.34 1014.51 1014.30 1014.07 1014.09 1014.22 1014.48 1014.38 1014.30 1014.30 1014.38 1014.41 1014.57 1014.79 1014.70 1014.67 1014.63 1014.21 1014.14 1013.78 1013.66 1013.52 1013.42 1013.01 1012.80 1013.18 1013.31
1004.45 1005.35 1006.27 1007.28 1008.08 1008.67 1009.57 1010.49 1011.39 1012.29 1012.97 1013.59 1014.04 1014.44 1014.73 1014.80 1014.67 1014.68 1014.14 1014.00 1013.80 1013.87 1014.41 1014.65 1014.39 1014.11 1014.44 1014.45 1014.88 1014.89 1014.96 1014.99 1014.82 1014.99 1014.33 1014.37 1014.43 1014.48 1014.08 1013.60 1013.04 1013.11 1013.07
1003.48 1004.48 1005.24 1006.30 1007.16 1008.01 1008.90 1009.83 1010.60 1011.52 1012.23 1012.90 1013.39 1013.86 1014.23 1014.32 1014.38 1014.36 1013.96 1014.00 1013.87 1013.97 1014.63 1014.52 1014.41 1014.46 1014.35 1014.30 1014.64 1014.81 1014.89 1015.36 1015.39 1015.62 1015.59 1014.93 1015.00 1014.99 1014.80 1014.47 1014.03 1013.07 1012.46
1002.44 1003.31 1004.28 1005.20 1006.24 1006.99 1007.80 1008.67 1009.66 1010.69 1011.37 1012.08 1012.86 1013.47 1013.84 1013.99 1013.70 1013.86 1014.12 1013.94 1014.11 1013.95 1014.25 1014.36 1014.38 1014.39 1014.39 1014.62 1014.96 1014.96 1015.61 1015.69 1015.86 1016.00 1015.83 1015.26 1015.25 1015.19 1015.05 1014.72 1014.52 1014.26 1013.23
1001.86 1002.39 1003.24 1004.38 1005.14 1005.92 1006.90 1008.01 1008.89 1009.80 1010.43 1011.27 1012.19 1012.80 1013.27 1013.61 1013.81 1013.88 1013.95 1013.74 1013.81 1014.24 1014.22 1014.33 1014.29 1014.33 1014.50 1014.74 1015.04 1015.29 1015.87 1015.93 1015.74 1015.75 1016.02 1015.89 1015.73 1015.44 1015.30 1015.11 1014.84 1014.55 1014.25
1001.22 1001.64 1002.17 1003.50 1004.30 1005.09 1006.08 1007.10 1008.11 1009.03 1009.92 1010.54 1011.17 1011.80 1012.44 1012.98 1013.40 1013.57 1013.65 1013.74 1013.91 1014.02 1014.12 1014.25 1014.27 1014.23 1014.42 1014.82 1015.12 1015.50 1015.98 1016.13 1016.07 1016.23 1016.35 1016.48 1016.47 1015.87 1015.58 1015.35 1015.18 1014.95 1014.98
1001.48 1001.29 1001.62 1002.66 1003.75 1004.46 1005.31 1006.30 1007.28 1008.09 1008.95 1009.73 1010.35 1010.97 1011.70 1012.19 1012.62 1012.98 1013.21 1013.54 1013.68 1013.75 1013.85 1013.97 1014.05 1014.06 1014.08 1014.50 1015.12 1015.41 1015.83 1016.31 1016.10 1016.40 1016.49 1016.53 1016.41 1016.47 1016.43 1015.71 1016.16 1015.89 1015.68
1002.67 1001.94 1001.93 1002.62 1003.50 1004.19 1004.94 1005.85 1006.72 1007.41 1008.26 1008.96 1009.63 1010.31 1011.03 1011.66 1012.00 1012.31 1012.71 1013.01 1013.24 1013.39 1013.41 1013.57 1013.72 1013.77 1013.90 1014.04 1014.89 1015.25 1016.04 1016.43 1016.27 1016.51 1016.60 1016.88 1017.05 1016.96 1016.94 1016.88 1016.28 1016.06 1016.07
1004.86 1004.03 1003.78 1003.92 1004.46 1004.76 1005.23 1005.94 1006.47 1007.01 1007.76 1008.55 1009.20 1009.57 1009.91 1010.52 1011.13 1011.68 1012.06 1012.35 1012.66 1012.93 1013.11 1013.13 1013.28 1013.46 1013.58 1013.81 1014.72 1015.19 1015.97 1016.41 1016.46 1016.67 1016.92 1017.19 1017.28 1017.43 1017.48 1017.33 1017.14 1016.99 1016.25
1007.11 1006.28 1006.34 1006.06 1005.95 1005.84 1006.08 1006.48 1006.85 1007.01 1007.40 1008.11 1008.68 1008.97 1009.47 1009.92 1010.45 1010.80 1011.18 1011.55 1011.96 1012.27 1012.65 1012.67 1012.78 1013.08 1013.21 1013.50 1014.51 1015.02 1016.07 1016.48 1016.41 1016.82 1017.21 1017.39 1018.00 1018.29 1018.17 1017.41 1017.82 1017.40 1016.88
1008.76 1008.24 1008.14 1007.96 1007.82 1007.42 1006.79 1006.66 1006.78 1007.07 1007.44 1007.74 1008.29 1008.69 1009.04 1009.35 1009.71 1010.08 1010.39 1010.89 1011.29 1011.68 1012.09 1012.33 1012.39 1012.55 1012.71 1013.00 1014.14 1014.93 1015.86 1016.38 1016.58 1016.93 1017.38 1018.06 1018.45 1018.80 1018.86 1018.85 1018.74 1018.77 1018.26
1010.25 1010.03 1009.55 1009.16 1008.66 1007.97 1007.90 1007.44 1006.89 1007.03 1007.33 1007.74 1008.07 1008.19 1008.61 1008.84 1009.17 1009.50 1009.80 1010.13 1010.71 1011.13 1011.63 1011.88 1012.02 1012.12 1012.43 1013.22 1014.06 1014.91 1015.41 1016.06 1016.73 1016.94 1017.35 1017.48 1018.24 1018.73 1019.02 1019.45 1019.31 1019.23 1019.28
1010.97 1010.57 1010.35 1009.71 1009.37 1008.57 1008.48 1008.39 1007.54 1007.28 1007.15 1007.39 1007.61 1007.91 1008.04 1008.35 1008.75 1009.17 1009.39 1009.69 1010.20 1010.57 1010.99 1011.33 1011.60 1011.73 1012.06 1013.31 1014.26 1015.02 1015.50 1016.19 1016.76 1016.66 1017.02 1017.25 1018.39 1018.60 1018.84 1018.87 1018.89 1019.14 1019.63
1011.45 1011.21 1010.56 1010.19 1009.76 1009.04 1009.43 1008.85 1007.75 1007.15 1007.20 1007.23 1007.34 1007.64 1007.96 1008.08 1008.34 1008.73 1008.97 1009.23 1009.76 1010.15 1010.33 1010.76 1011.13 1011.52 1012.67 1013.44 1014.48 1015.07 1015.56 1016.09 1016.77 1016.80 1017.17 1017.64 1018.22 1018.79 1019.08 1018.82 1018.81 1019.05 1019.34
1011.43 1011.06 1010.52 1010.06 1009.86 1010.05 1009.86 1009.30 1008.46 1007.12 1007.16 1007.07 1007.24 1007.47 1007.73 1008.08 1008.03 1008.33 1008.59 1008.90 1009.38 1009.63 1009.68 1010.12 1010.58 1011.10 1012.04 1013.77 1014.33 1014.65 1014.83 1015.77 1016.34 1017.03 1017.28 1017.73 1018.27 1019.11 1019.38 1018.84 1018.79 1018.64 1018.74
1011.86 1011.34 1010.93 1010.60 1010.74 1010.40 1010.05 1009.56 1009.25 1008.78 1008.57 1008.25 1007.94 1007.59 1007.78 1008.13 1008.19 1008.33 1008.62 1008.82 1008.97 1008.95 1009.47 1009.56 1010.00 1010.56 1011.37 1013.43 1014.10 1014.37 1014.58 1015.28 1016.36 1017.03 1017.04 1017.49 1018.44 1019.14 1019.45 1019.59 1018.93 1018.89 1019.09
1012.07 1011.31 1010.97 1010.87 1010.85 1010.56 1010.07 1009.67 1009.57 1009.74 1009.35 1008.48 1008.15 1007.86 1007.99 1008.19 1007.61 1008.17 1008.31 1008.57 1008.77 1008.88 1009.01 1009.32 1009.67 1010.35 1011.22 1012.68 1013.99 1014.36 1014.53 1015.23 1015.64 1016.08 1016.32 1016.96 1018.08 1018.89 1019.42 1019.52 1019.33 1019.44 1019.26
1012.43 1011.69 1011.13 1011.00 1010.95 1010.89 1010.73 1010.35 1010.54 1010.24 1009.65 1008.91 1008.58 1008.54 1007.88 1008.74 1008.90 1008.23 1008.35 1008.55 1008.95 1008.93 1008.83 1008.83 1009.12 1010.35 1011.08 1012.31 1013.50 1014.33 1015.05 1015.62 1015.83 1015.72 1016.05 1016.45 1017.64 1018.68 1019.26 1019.27 1019.28 1019.16 1018.52
1012.95 1012.29 1011.64 1011.47 1011.38 1011.32 1011.21 1011.17 1010.94 1010.56 1010.17 1009.52 1009.17 1008.95 1008.38 1008.42 1008.64 1009.02 1009.56 1009.72 1009.34 1009.63 1008.79 1008.17 1008.95 1009.24 1010.17 1010.75 1012.73 1014.52 1015.34 1015.82 1015.78 1015.96 1016.35 1017.06 1017.63 1017.98 1018.05 1018.85 1019.04 1018.45 1017.89
1013.46 1013.12 1012.49 1012.04 1011.83 1011.58 1011.51 1011.39 1011.28 1010.75 1010.20 1009.75 1009.52 1009.33 1009.10 1008.94 1008.97 1008.76 1008.87 1009.98 1010.70 1010.81 1011.43 1010.39 1008.17 1008.39 1009.09 1009.45 1010.99 1012.59 1013.86 1014.90 1015.33 1015.84 1016.63 1016.93 1017.06 1017.16 1016.99 1017.35 1017.60 1017.59 1018.12
1013.78 1013.58 1013.05 1012.79 1012.41 1011.88 1011.71 1011.41 1011.20 1010.85 1010.52 1009.96 1009.52 1009.35 1009.49 1008.77 1008.66 1009.44 1009.82 1009.28 1009.57 1009.77 1009.53 1010.64 1009.70 1007.79 1008.56 1009.12 1010.41 1011.86 1012.88 1013.98 1014.88 1015.61 1015.97 1016.15 1016.01 1015.89 1015.87 1016.10 1016.57 1017.05 1017.57
Wind_Speed
18 17 15 14 12 12 12 12 11 9 7 7 6 5 5 4 4 3 1 4 4 2 3 5 5 5 6 6 7 7 9 7 6 8 3 7 2 5 5 5 6 6 7
18 18 17 15 14 14 13 12 12 11 9 7 5 4 3 4 4 4 3 4 5 5 4 5 7 6 7 4 6 8 8 6 6 6 7 2 6 3 5 4 3 5 3
18 19 18 17 15 14 15 14 13 12 10 9 6 5 5 6 7 6 5 3 5 4 3 5 7 7 6 6 5 8 8 7 4 4 6 6 6 3 2 2 2 2 1
18 17 18 17 16 15 14 14 13 13 11 10 7 6 6 6 5 4 3 7 3 3 4 5 6 5 6 6 7 6 6 5 5 4 3 4 7 9 3 4 5 4 4
19 20 20 19 17 15 14 13 13 13 11 11 10 8 9 6 6 5 2 2 1 2 4 5 5 5 6 6 7 7 6 3 6 5 6 3 3 0 6 7 2 6 2
19 19 19 18 17 15 14 13 14 14 13 12 12 11 9 8 5 5 4 3 2 1 4 6 4 4 6 7 5 5 5 6 5 5 5 5 6 6 6 7 4 4 1
19 19 19 18 17 17 16 14 15 16 15 14 13 13 12 10 9 8 7 4 3 2 6 5 4 4 5 5 4 3 5 4 5 5 5 5 5 6 6 6 6 5 1
19 19 20 20 19 18 17 16 16 16 16 15 15 13 12 9 9 9 6 6 4 3 2 4 5 4 4 3 4 3 5 5 4 5 5 4 4 4 5 6 7 7 3
20 21 21 20 19 19 20 20 18 17 17 17 14 12 11 12 9 10 8 8 5 5 5 2 5 5 4 4 1 4 5 3 2 3 3 3 4 4 4 4 5 6 7
17 19 19 20 20 21 19 19 18 18 19 18 14 12 13 12 11 10 11 9 6 5 4 4 5 5 5 1 2 3 4 2 2 2 3 4 5 3 4 4 4 4 6
15 16 17 19 20 19 18 18 17 17 16 17 16 15 14 13 12 11 11 11 10 8 7 6 5 5 3 1 1 2 5 2 3 2 4 5 4 5 4 4 4 5 6
11 13 16 17 17 18 17 18 17 17 17 16 14 15 14 14 14 13 13 12 11 10 9 8 7 6 6 2 4 5 5 4 4 3 3 4 4 3 3 3 5 6 5
2 9 11 13 14 15 16 16 17 17 16 16 17 16 15 14 14 14 13 12 12 12 11 9 8 8 7 4 5 6 6 5 5 4 3 4 4 5 6 7 6 5 5
8 7 3 6 8 11 11 12 13 14 14 15 16 16 18 17 16 14 13 13 13 12 12 11 9 8 8 6 8 7 8 5 5 5 4 5 4 6 5 5 5 5 4
9 10 5 4 2 6 8 10 12 12 13 14 15 17 15 15 15 15 14 13 13 12 12 12 10 9 8 7 9 9 9 8 7 6 6 6 10 12 12 4 7 7 8
9 8 6 4 2 4 4 7 9 10 12 12 14 13 14 15 15 15 14 12 12 12 11 12 11 11 9 18 13 11 10 10 7 8 8 10 12 12 13 13 15 12 9
6 6 6 6 7 6 5 6 8 10 11 12 14 13 14 15 15 14 14 13 12 11 12 12 12 11 9 14 15 11 11 11 7 10 10 9 9 9 9 8 8 8 6
8 7 7 7 6 8 9 10 8 9 11 12 12 12 13 14 14 14 14 12 11 11 11 12 12 11 7 16 15 12 12 11 7 9 11 7 10 8 6 4 4 6 10
7 6 7 6 6 8 10 11 10 8 10 10 10 10 11 12 13 15 14 12 11 11 12 11 12 12 10 16 17 14 12 11 9 8 9 10 9 9 2 4 3 3 6
7 8 7 6 7 8 7 7 7 4 7 7 8 8 8 10 12 13 12 11 11 11 10 11 11 12 11 14 18 13 9 12 9 6 9 5 8 10 6 5 3 3 3
9 7 6 6 6 6 6 7 8 8 5 5 3 1 4 8 9 8 8 9 10 10 12 12 11 11 12 15 18 15 10 11 11 6 9 9 12 11 8 7 3 4 3
9 7 5 6 7 6 5 7 10 7 6 6 5 4 5 5 4 6 7 8 9 11 11 11 9 8 9 13 15 12 5 12 11 9 8 9 14 11 9 7 7 4 6
7 8 6 6 7 8 8 7 9 9 9 5 9 9 13 10 9 2 4 4 7 9 10 10 9 8 8 10 15 8 8 9 8 7 9 16 15 11 7 4 5 7 7
8 8 7 7 8 7 8 6 7 7 7 3 3 4 6 7 8 5 8 8 8 7 10 10 9 11 10 11 11 10 8 8 6 8 10 11 11 10 4 9 6 8 2
7 8 8 7 7 7 6 6 7 6 4 6 5 8 5 6 5 4 5 4 2 4 6 15 9 10 12 12 15 18 14 11 9 11 9 10 11 10 9 9 8 5 5
6 7 8 8 8 7 8 8 7 6 5 3 4 3 4 2 4 2 3 8 6 7 7 19 15 11 7 19 22 17 16 17 20 10 8 8 10 11 10 9 8 7 5
Wind_Direction
180 180 189 187 193 196 192 194 195 191 203 195 210 220 232 215 239 249 348 319 19 7 323 329 334 315 328 357 347 349 354 343 357 299 9 123 91 28 30 33 40 56 68
182 182 187 194 196 197 205 203 205 195 208 200 212 263 275 257 291 296 311 326 311 317 283 335 333 355 324 343 353 358 341 323 22 334 307 287 152 82 8 44 51 69 76
192 188 189 196 199 200 202 208 208 204 207 227 200 210 245 244 248 241 251 16 309 314 333 328 334 330 289 9 352 2 352 344 331 24 338 327 359 344 154 114 19 337 78
197 192 193 198 204 203 202 206 207 207 201 204 221 233 270 262 244 265 328 299 321 344 348 359 1 357 341 4 7 14 338 332 357 344 65 352 354 336 325 162 119 246 241
194 197 196 197 202 205 202 201 201 205 213 200 228 214 229 237 237 243 286 313 307 1 65 13 358 15 349 20 352 2 355 336 348 357 348 7 301 270 321 327 107 181 198
198 200 200 200 202 203 207 200 195 202 202 203 206 217 235 241 250 225 254 243 295 178 49 1 0 21 353 20 359 359 33 25 19 357 342 358 348 347 325 327 316 339 84
198 198 198 200 205 202 202 204 197 199 200 200 206 208 217 223 227 237 226 305 249 245 73 350 345 6 18 356 13 15 58 40 17 360 354 13 7 344 337 319 329 308 348
199 201 200 199 200 201 199 202 198 200 197 201 205 207 211 218 221 214 255 241 245 238 33 341 313 348 358 355 350 47 44 38 45 44 21 14 22 9 3 345 331 321 299
207 202 203 199 200 201 199 199 200 201 199 200 201 205 211 223 222 228 210 223 230 239 201 288 292 314 333 354 338 77 80 88 45 88 49 358 29 19 1 353 343 338 329
206 213 199 203 200 202 200 200 199 200 201 199 197 202 210 215 223 222 227 239 236 237 250 251 263 298 312 341 317 125 118 94 87 54 39 354 22 4 8 352 349 342 321
214 206 200 196 205 203 198 199 200 199 203 203 200 202 205 211 216 222 226 227 228 224 227 234 253 278 289 281 161 133 144 166 124 94 62 60 24 12 18 5 358 2 344
237 214 196 189 196 200 197 196 199 200 201 202 204 204 204 205 209 217 222 228 231 226 224 229 239 260 273 198 192 186 157 173 153 124 105 73 62 24 356 38 12 25 29
263 211 198 186 190 196 191 199 199 203 202 200 201 201 204 205 211 213 218 221 226 234 229 222 237 248 246 214 183 189 159 190 144 143 125 92 73 52 39 21 11 26 25
33 51 141 190 194 201 193 199 207 207 201 204 207 207 204 205 208 211 214 216 221 228 233 229 235 238 231 194 175 173 163 176 147 139 115 103 96 81 64 50 44 25 348
33 63 48 47 261 208 206 207 210 218 208 206 213 215 216 212 211 209 214 218 220 220 230 232 227 228 224 181 181 174 164 166 150 139 134 111 71 53 30 46 39 10 6
32 35 23 62 358 352 274 219 217 218 217 213 218 218 217 216 215 212 209 214 218 216 221 227 222 221 231 135 152 168 161 165 151 152 124 121 119 88 71 68 55 34 15
17 4 5 356 10 351 325 269 244 215 209 213 217 215 213 214 213 214 208 208 213 209 215 222 218 221 217 149 151 166 159 163 162 160 152 167 120 142 123 111 113 82 58
349 353 337 344 343 352 360 326 271 247 219 217 218 215 208 211 211 213 211 205 208 206 210 217 217 218 203 151 153 170 156 157 176 169 162 149 159 149 160 140 93 65 52
335 335 333 331 338 360 350 332 296 230 217 224 222 225 217 211 209 212 208 204 208 205 213 217 213 213 145 147 155 177 162 158 167 177 167 156 170 139 232 182 141 108 112
339 346 359 7 3 352 349 347 349 243 222 225 220 219 228 234 218 214 208 205 211 212 215 216 211 207 163 163 167 191 171 165 166 172 161 165 167 158 197 219 188 210 134
352 341 360 16 6 351 7 42 23 26 1 303 253 235 264 244 238 218 214 210 209 220 213 216 208 205 179 175 182 205 176 170 163 182 175 171 140 166 196 263 287 11 119
346 355 13 27 23 20 17 28 35 15 341 314 241 158 85 305 219 216 212 220 221 215 210 217 207 192 175 161 190 199 221 159 164 180 186 157 154 165 182 228 114 155 243
3 347 15 42 36 34 28 28 359 348 345 3 87 102 92 72 11 297 209 220 218 250 217 208 186 193 189 160 171 165 144 153 164 178 174 140 156 148 173 196 172 208 229
358 351 359 31 37 33 26 5 339 339 335 282 115 47 80 112 120 64 28 6 359 320 258 226 197 204 195 169 166 170 152 162 163 127 136 154 169 188 166 151 199 241 207
2 347 356 3 26 19 40 14 348 355 339 301 270 245 205 221 175 135 95 45 13 132 307 307 206 211 201 195 164 168 173 173 173 155 142 171 180 187 181 189 191 189 178
345 358 2 358 1 19 22 16 16 359 360 322 359 30 231 290 36 52 156 143 163 354 13 298 279 207 225 146 153 168 146 152 142 160 162 184 191 190 182 183 178 186 199